Showing default

ALSAT 3A, 67474

Orbit data source: Space-Track

ALSAT 3A, 67474 is a payload satellite owned by ASAL (DZ) in SSO that was launched on Thu, 15 Jan 2026 UTC via a CHANG ZHENG 2C launch vehicle from the Jiuquan Satellite Launch Center, China (JSC). Payload-class satellites include a variety of spacecraft equipped with specific instruments for various scientific and technological missions. These include communications satellites like Starlink; space stations such as the ISS; scientific satellites like the Hubble; Earth observation satellites from companies like Planet Labs, Umbra, and HawkEye 360; GPS; miniature CubeSats for education and research; and military/defense satellites.

Loading next visibility...
Identifier
67474, 2026-009A
Orbit
SSO
Country
Flag of DZDZ / ALG
Related business
Manufacturer
CAST
Mission
Operational spacecraft
Bus & Motor
CAST-2000?, Unknown motor
Mass
~500 kg wet, ~500 kg dry
Launch date (UTC)
2026-01-15 (4 weeks ago)
Launch vehicle
CHANG ZHENG 2C
Launch site
Jiuquan Satellite Launch Center, China (JSC)
Object type
Payload
Rocket body
Debris
Shape & HBR
Unknown
Radar Cross Section
RCS unknown

Expand to show TLE details & history
Last TLE update: 9 hours ago

TLE from 9 hours ago
0 ALSAT 3A
1 67474U 26009A   26039.97578288  .00006882  00000-0  29114-3 0  9993
2 67474  97.4675 114.6335 0012459 168.9802 191.1710 15.23452837  3751
Epoch: 2026-02-08T23:25Z
TLE epoch observation values (Epoch: 2026-02-08T23:25:07.640Z)
Latitude
-0.00006°
Longitude
-15.72556°
Altitude
506.932 km
Speed
7.606 km/s
True Right ascension
07h 38m 32s
True Declination
0° 00' 00"
Sunlit
Object was in full shadow at epoch
Visualization orbit readout
Latitude
Unknown
Longitude
Unknown
Altitude
Unknown
Speed
Unknown
Apparent Right ascension
Unknown
Apparent Declination
Unknown
Sunlit
N/A
Visualization observer readout
Local Sidereal Time
10:20:11
Azimuth
Unknown
Elevation
Unknown
Doppler factor
Unknown
Orbital elements
Apogee altitude
500.959 km
Perigee altitude
483.839 km
Semi-major axis
6,870.536 km
Eccentricity
0.00125
Inclination
97.4675°
RAAN
114.6335°
Arg. of periapsis
168.9802°
True anomaly
191.14338°
Mean anomaly
191.171°
Eccentric anomaly
191.15719°
Mean motion
3.81116 °/min
Orbital period
94.46 mins
BSTAR
0.00029114
Loading maneuver chart data...
Computing Atmospheric mass density...
Loading historical data...
Loading historical data...
Loading historical data...
Loading historical data...
Loading historical data...
Loading historical data...
Loading historical data...
Other satellites on launch #9 in the year 2026 (2026-01-15 UTC)

Documentation

Showing up to 5 results
|